contact:dominique.lefevre@mio.osupytheas.fr, maurice.libes@osupytheas.fr, didier.mallarino@osupytheas.fr
Project:EMSO http://www.emso-fr.org/EMSO-France
Depth: 2436.0 m
Title:EMSO Ligure Ouest : Data MII capteur MICROCAT
DateTime_Computer,Latitude,Longitude,Temperature,Conductivity,Pressure,DateTime_Instrument
DateTime_Computer,Latitude,Longitude,degC,S m-1,dbar,DateTime_Instrument
2021-04-05T00:02:51Z,42.805,6.029,13.3048,4.60033,2470.273,2021-4-05T02:03:59Z
2021-04-05T00:05:54Z,42.805,6.029,13.3041,4.60023,2470.297,2021-4-05T02:07:02Z
2021-04-05T00:08:58Z,42.805,6.029,13.3029,4.60021,2470.273,2021-4-05T02:10:05Z
2021-04-05T00:12:01Z,42.805,6.029,13.3045,4.60016,2470.297,2021-4-05T02:13:08Z
2021-04-05T00:15:04Z,42.805,6.029,13.3039,4.60033,2470.31,2021-4-05T02:16:12Z
2021-04-05T00:18:07Z,42.805,6.029,13.3032,4.60025,2470.31,2021-4-05T02:19:15Z
2021-04-05T00:21:10Z,42.805,6.029,13.3053,4.60023,2470.287,2021-4-05T02:22:18Z
2021-04-05T00:24:13Z,42.805,6.029,13.3031,4.60032,2470.31,2021-4-05T02:25:21Z
2021-04-05T00:27:16Z,42.805,6.029,13.3043,4.60013,2470.297,2021-4-05T02:28:24Z
2021-04-05T00:30:19Z,42.805,6.029,13.3028,4.60033,2470.264,2021-4-05T02:31:27Z
2021-04-05T00:33:22Z,42.805,6.029,13.3034,4.60029,2470.287,2021-4-05T02:34:30Z
2021-04-05T00:36:26Z,42.805,6.029,13.3046,4.60034,2470.297,2021-4-05T02:37:33Z
2021-04-05T00:39:29Z,42.805,6.029,13.3039,4.60025,2470.31,2021-4-05T02:40:37Z
2021-04-05T00:42:32Z,42.805,6.029,13.3035,4.60027,2470.31,2021-4-05T02:43:40Z
2021-04-05T00:45:35Z,42.805,6.029,13.3034,4.60022,2470.31,2021-4-05T02:46:43Z
2021-04-05T00:48:38Z,42.805,6.029,13.3063,4.60027,2470.31,2021-4-05T02:49:46Z
2021-04-05T00:51:41Z,42.805,6.029,13.3037,4.60026,2470.297,2021-4-05T02:52:49Z
2021-04-05T00:54:44Z,42.805,6.029,13.3031,4.60024,2470.334,2021-4-05T02:55:52Z
2021-04-05T00:57:47Z,42.805,6.029,13.3027,4.60031,2470.32,2021-4-05T02:58:55Z
2021-04-05T01:00:51Z,42.805,6.029,13.3026,4.60034,2470.297,2021-4-05T03:01:58Z
2021-04-05T01:03:54Z,42.805,6.029,13.3031,4.60024,2470.357,2021-4-05T03:05:01Z
2021-04-05T01:06:57Z,42.805,6.029,13.3036,4.60030,2470.287,2021-4-05T03:08:05Z
2021-04-05T01:10:00Z,42.805,6.029,13.3056,4.60023,2470.31,2021-4-05T03:11:08Z
2021-04-05T01:13:03Z,42.805,6.029,13.3024,4.60014,2470.334,2021-4-05T03:14:11Z
2021-04-05T01:16:06Z,42.805,6.029,13.3028,4.60023,2470.297,2021-4-05T03:17:14Z
2021-04-05T01:19:09Z,42.805,6.029,13.3023,4.60033,2470.32,2021-4-05T03:20:17Z
2021-04-05T01:22:12Z,42.805,6.029,13.3028,4.60031,2470.32,2021-4-05T03:23:20Z
2021-04-05T01:25:15Z,42.805,6.029,13.3029,4.60021,2470.297,2021-4-05T03:26:23Z
2021-04-05T01:28:19Z,42.805,6.029,13.3035,4.60029,2470.297,2021-4-05T03:29:26Z
2021-04-05T01:31:22Z,42.805,6.029,13.3051,4.60031,2470.32,2021-4-05T03:32:30Z
2021-04-05T01:34:25Z,42.805,6.029,13.3051,4.60007,2470.306,2021-4-05T03:35:33Z
2021-04-05T01:37:28Z,42.805,6.029,13.3046,4.60038,2470.334,2021-4-05T03:38:36Z
2021-04-05T01:40:31Z,42.805,6.029,13.3037,4.60023,2470.297,2021-4-05T03:41:39Z
2021-04-05T01:43:34Z,42.805,6.029,13.3026,4.60019,2470.32,2021-4-05T03:44:42Z
2021-04-05T01:46:37Z,42.805,6.029,13.3040,4.60023,2470.32,2021-4-05T03:47:45Z
2021-04-05T01:49:40Z,42.805,6.029,13.3035,4.60033,2470.25,2021-4-05T03:50:48Z
2021-04-05T01:52:44Z,42.805,6.029,13.3048,4.60014,2470.31,2021-4-05T03:53:51Z
2021-04-05T01:55:47Z,42.805,6.029,13.3032,4.60020,2470.31,2021-4-05T03:56:54Z
2021-04-05T01:58:50Z,42.805,6.029,13.3026,4.60028,2470.297,2021-4-05T03:59:58Z
2021-04-05T02:01:53Z,42.805,6.029,13.3046,4.60035,2470.31,2021-4-05T04:03:01Z
2021-04-05T02:04:56Z,42.805,6.029,13.3036,4.60031,2470.31,2021-4-05T04:06:04Z
2021-04-05T02:07:59Z,42.805,6.029,13.3034,4.60035,2470.297,2021-4-05T04:09:07Z
2021-04-05T02:11:02Z,42.805,6.029,13.3051,4.60027,2470.31,2021-4-05T04:12:10Z
2021-04-05T02:14:05Z,42.805,6.029,13.3056,4.60046,2470.32,2021-4-05T04:15:13Z
2021-04-05T02:17:08Z,42.805,6.029,13.3052,4.60030,2470.287,2021-4-05T04:18:16Z
2021-04-05T02:20:12Z,42.805,6.029,13.3045,4.60030,2470.32,2021-4-05T04:21:19Z
2021-04-05T02:23:15Z,42.805,6.029,13.3048,4.60031,2470.31,2021-4-05T04:24:22Z
2021-04-05T02:26:18Z,42.805,6.029,13.3046,4.60034,2470.343,2021-4-05T04:27:26Z
2021-04-05T02:29:21Z,42.805,6.029,13.3065,4.60039,2470.32,2021-4-05T04:30:29Z
2021-04-05T02:32:24Z,42.805,6.029,13.3068,4.60032,2470.31,2021-4-05T04:33:32Z
2021-04-05T02:35:27Z,42.805,6.029,13.3048,4.60033,2470.273,2021-4-05T04:36:35Z
2021-04-05T02:38:30Z,42.805,6.029,13.3045,4.60035,2470.297,2021-4-05T04:39:38Z
2021-04-05T02:41:33Z,42.805,6.029,13.3005,4.60033,2470.334,2021-4-05T04:42:41Z
2021-04-05T02:44:37Z,42.805,6.029,13.3034,4.60052,2470.297,2021-4-05T04:45:44Z
2021-04-05T02:47:40Z,42.805,6.029,13.3074,4.60054,2470.334,2021-4-05T04:48:47Z
2021-04-05T02:50:43Z,42.805,6.029,13.3056,4.60031,2470.343,2021-4-05T04:51:51Z
2021-04-05T02:53:46Z,42.805,6.029,13.3067,4.60085,2470.297,2021-4-05T04:54:54Z
2021-04-05T02:56:49Z,42.805,6.029,13.3066,4.60035,2470.297,2021-4-05T04:57:57Z
2021-04-05T02:59:52Z,42.805,6.029,13.3048,4.60036,2470.31,2021-4-05T05:01:00Z
2021-04-05T03:02:55Z,42.805,6.029,13.3056,4.60045,2470.273,2021-4-05T05:04:03Z
2021-04-05T03:05:58Z,42.805,6.029,13.3061,4.60041,2470.297,2021-4-05T05:07:06Z
2021-04-05T03:09:01Z,42.805,6.029,13.3045,4.60029,2470.31,2021-4-05T05:10:09Z
2021-04-05T03:12:05Z,42.805,6.029,13.3051,4.60044,2470.334,2021-4-05T05:13:12Z
2021-04-05T03:15:08Z,42.805,6.029,13.3077,4.60036,2470.297,2021-4-05T05:16:15Z
2021-04-05T03:18:11Z,42.805,6.029,13.3067,4.60038,2470.297,2021-4-05T05:19:19Z
2021-04-05T03:21:14Z,42.805,6.029,13.3067,4.60039,2470.334,2021-4-05T05:22:22Z
2021-04-05T03:24:17Z,42.805,6.029,13.3019,4.60027,2470.273,2021-4-05T05:25:25Z
2021-04-05T03:27:20Z,42.805,6.029,13.3004,4.60031,2470.297,2021-4-05T05:28:28Z
2021-04-05T03:30:23Z,42.805,6.029,13.3026,4.60036,2470.334,2021-4-05T05:31:31Z
2021-04-05T03:33:26Z,42.805,6.029,13.3026,4.60025,2470.334,2021-4-05T05:34:34Z
2021-04-05T03:36:30Z,42.805,6.029,13.2989,4.60019,2470.32,2021-4-05T05:37:37Z
2021-04-05T03:39:33Z,42.805,6.029,13.2986,4.60010,2470.334,2021-4-05T05:40:40Z
2021-04-05T03:42:36Z,42.805,6.029,13.2987,4.60014,2470.32,2021-4-05T05:43:44Z
2021-04-05T03:45:39Z,42.805,6.029,13.2990,4.60022,2470.343,2021-4-05T05:46:47Z
2021-04-05T03:48:42Z,42.805,6.029,13.3049,4.60039,2470.334,2021-4-05T05:49:50Z
2021-04-05T03:51:45Z,42.805,6.029,13.3013,4.60029,2470.297,2021-4-05T05:52:53Z
2021-04-05T03:54:48Z,42.805,6.029,13.3027,4.60060,2470.343,2021-4-05T05:55:56Z
2021-04-05T03:57:51Z,42.805,6.029,13.3013,4.60038,2470.334,2021-4-05T05:58:59Z
2021-04-05T04:00:54Z,42.805,6.029,13.2989,4.60106,2470.357,2021-4-05T06:02:02Z
2021-04-05T04:03:58Z,42.805,6.029,13.2990,4.60026,2470.287,2021-4-05T06:05:05Z
2021-04-05T04:07:01Z,42.805,6.029,13.2985,4.60016,2470.334,2021-4-05T06:08:09Z
2021-04-05T04:10:04Z,42.805,6.029,13.2983,4.60027,2470.343,2021-4-05T06:11:12Z
2021-04-05T04:13:07Z,42.805,6.029,13.2983,4.60018,2470.32,2021-4-05T06:14:15Z
2021-04-05T04:16:10Z,42.805,6.029,13.2981,4.60017,2470.31,2021-4-05T06:17:18Z
2021-04-05T04:19:13Z,42.805,6.029,13.2984,4.60014,2470.32,2021-4-05T06:20:21Z
2021-04-05T04:22:16Z,42.805,6.029,13.2986,4.60006,2470.297,2021-4-05T06:23:24Z
2021-04-05T04:25:19Z,42.805,6.029,13.2986,4.60014,2470.357,2021-4-05T06:26:27Z
2021-04-05T04:28:23Z,42.805,6.029,13.2982,4.60006,2470.334,2021-4-05T06:29:30Z
2021-04-05T04:31:26Z,42.805,6.029,13.2982,4.60011,2470.273,2021-4-05T06:32:33Z
2021-04-05T04:34:29Z,42.805,6.029,13.2983,4.60009,2470.32,2021-4-05T06:35:37Z
2021-04-05T04:37:32Z,42.805,6.029,13.2983,4.60009,2470.297,2021-4-05T06:38:40Z
2021-04-05T04:40:35Z,42.805,6.029,13.2982,4.60007,2470.297,2021-4-05T06:41:43Z
2021-04-05T04:43:38Z,42.805,6.029,13.2981,4.60003,2470.297,2021-4-05T06:44:46Z
2021-04-05T04:46:41Z,42.805,6.029,13.2986,4.60006,2470.306,2021-4-05T06:47:49Z
2021-04-05T04:49:44Z,42.805,6.029,13.2982,4.60007,2470.306,2021-4-05T06:50:52Z
2021-04-05T04:52:47Z,42.805,6.029,13.2983,4.60004,2470.297,2021-4-05T06:53:55Z
2021-04-05T04:55:51Z,42.805,6.029,13.2975,4.60006,2470.283,2021-4-05T06:56:58Z
2021-04-05T04:58:54Z,42.805,6.029,13.2983,4.60001,2470.334,2021-4-05T07:00:02Z
2021-04-05T05:01:57Z,42.805,6.029,13.2983,4.60009,2470.334,2021-4-05T07:03:05Z
2021-04-05T05:05:00Z,42.805,6.029,13.2982,4.60005,2470.297,2021-4-05T07:06:08Z
2021-04-05T05:08:03Z,42.805,6.029,13.2979,4.60003,2470.297,2021-4-05T07:09:11Z
2021-04-05T05:11:06Z,42.805,6.029,13.2983,4.60003,2470.32,2021-4-05T07:12:14Z
2021-04-05T05:14:09Z,42.805,6.029,13.2981,4.60010,2470.32,2021-4-05T07:15:17Z
2021-04-05T05:17:12Z,42.805,6.029,13.2979,4.60003,2470.297,2021-4-05T07:18:20Z
2021-04-05T05:20:16Z,42.805,6.029,13.2980,4.59997,2470.32,2021-4-05T07:21:23Z
2021-04-05T05:23:19Z,42.805,6.029,13.2977,4.59999,2470.297,2021-4-05T07:24:26Z
2021-04-05T05:26:22Z,42.805,6.029,13.2979,4.60002,2470.297,2021-4-05T07:27:30Z
2021-04-05T05:29:25Z,42.805,6.029,13.2983,4.60003,2470.32,2021-4-05T07:30:33Z
2021-04-05T05:32:28Z,42.805,6.029,13.2980,4.60000,2470.32,2021-4-05T07:33:36Z
2021-04-05T05:35:31Z,42.805,6.029,13.2980,4.60009,2470.334,2021-4-05T07:36:39Z
2021-04-05T05:38:34Z,42.805,6.029,13.2986,4.60003,2470.297,2021-4-05T07:39:42Z
2021-04-05T05:41:37Z,42.805,6.029,13.2980,4.59998,2470.297,2021-4-05T07:42:45Z
2021-04-05T05:44:40Z,42.805,6.029,13.2982,4.60008,2470.273,2021-4-05T07:45:48Z
2021-04-05T05:47:44Z,42.805,6.029,13.2984,4.60006,2470.297,2021-4-05T07:48:51Z
2021-04-05T05:50:47Z,42.805,6.029,13.2980,4.60009,2470.25,2021-4-05T07:51:55Z
2021-04-05T05:53:50Z,42.805,6.029,13.2982,4.60011,2470.297,2021-4-05T07:54:58Z
2021-04-05T05:56:53Z,42.805,6.029,13.2982,4.60003,2470.297,2021-4-05T07:58:01Z
2021-04-05T05:59:56Z,42.805,6.029,13.2979,4.60003,2470.297,2021-4-05T08:01:04Z
2021-04-05T06:02:59Z,42.805,6.029,13.2980,4.59996,2470.297,2021-4-05T08:04:07Z
2021-04-05T06:06:02Z,42.805,6.029,13.2983,4.60011,2470.273,2021-4-05T08:07:10Z
2021-04-05T06:09:05Z,42.805,6.029,13.2981,4.60009,2470.287,2021-4-05T08:10:13Z
2021-04-05T06:12:09Z,42.805,6.029,13.2979,4.59999,2470.25,2021-4-05T08:13:16Z
2021-04-05T06:15:12Z,42.805,6.029,13.2980,4.60003,2470.287,2021-4-05T08:16:19Z
2021-04-05T06:18:15Z,42.805,6.029,13.2981,4.60002,2470.32,2021-4-05T08:19:23Z
2021-04-05T06:21:18Z,42.805,6.029,13.2983,4.60007,2470.25,2021-4-05T08:22:26Z
2021-04-05T06:24:21Z,42.805,6.029,13.2982,4.60009,2470.264,2021-4-05T08:25:29Z
2021-04-05T06:27:24Z,42.805,6.029,13.2980,4.59996,2470.31,2021-4-05T08:28:32Z
2021-04-05T06:30:27Z,42.805,6.029,13.2983,4.60008,2470.287,2021-4-05T08:31:35Z
2021-04-05T06:33:30Z,42.805,6.029,13.2986,4.60003,2470.26,2021-4-05T08:34:38Z
2021-04-05T06:36:34Z,42.805,6.029,13.2986,4.60016,2470.264,2021-4-05T08:37:41Z
2021-04-05T06:39:37Z,42.805,6.029,13.2982,4.60003,2470.273,2021-4-05T08:40:44Z
2021-04-05T06:42:40Z,42.805,6.029,13.2982,4.60010,2470.287,2021-4-05T08:43:48Z
2021-04-05T06:45:43Z,42.805,6.029,13.2986,4.60003,2470.287,2021-4-05T08:46:51Z
2021-04-05T06:48:46Z,42.805,6.029,13.2979,4.60016,2470.203,2021-4-05T08:49:54Z
2021-04-05T06:51:49Z,42.805,6.029,13.2982,4.60008,2470.264,2021-4-05T08:52:57Z
2021-04-05T06:54:52Z,42.805,6.029,13.2983,4.60011,2470.264,2021-4-05T08:56:00Z
2021-04-05T06:57:55Z,42.805,6.029,13.2983,4.60009,2470.273,2021-4-05T08:59:03Z
2021-04-05T07:00:58Z,42.805,6.029,13.2983,4.60014,2470.24,2021-4-05T09:02:06Z
2021-04-05T07:04:02Z,42.805,6.029,13.2982,4.60006,2470.25,2021-4-05T09:05:09Z
2021-04-05T07:07:05Z,42.805,6.029,13.2980,4.59991,2470.264,2021-4-05T09:08:13Z
2021-04-05T07:10:08Z,42.805,6.029,13.2982,4.60004,2470.227,2021-4-05T09:11:16Z
2021-04-05T07:13:11Z,42.805,6.029,13.2979,4.60022,2470.227,2021-4-05T09:14:19Z
2021-04-05T07:16:14Z,42.805,6.029,13.2980,4.60020,2470.264,2021-4-05T09:17:22Z
2021-04-05T07:19:17Z,42.805,6.029,13.2982,4.60018,2470.24,2021-4-05T09:20:25Z
2021-04-05T07:22:20Z,42.805,6.029,13.2986,4.60009,2470.227,2021-4-05T09:23:28Z
2021-04-05T07:25:23Z,42.805,6.029,13.2981,4.60009,2470.25,2021-4-05T09:26:31Z
2021-04-05T07:28:27Z,42.805,6.029,13.2985,4.60011,2470.227,2021-4-05T09:29:34Z
2021-04-05T07:31:30Z,42.805,6.029,13.2983,4.60003,2470.25,2021-4-05T09:32:37Z
2021-04-05T07:34:33Z,42.805,6.029,13.2984,4.59996,2470.227,2021-4-05T09:35:41Z
2021-04-05T07:37:36Z,42.805,6.029,13.2979,4.60004,2470.25,2021-4-05T09:38:44Z
2021-04-05T07:40:39Z,42.805,6.029,13.2982,4.60006,2470.203,2021-4-05T09:41:47Z
2021-04-05T07:43:42Z,42.805,6.029,13.2984,4.60005,2470.24,2021-4-05T09:44:50Z
2021-04-05T07:46:45Z,42.805,6.029,13.2981,4.60009,2470.25,2021-4-05T09:47:53Z
2021-04-05T07:49:48Z,42.805,6.029,13.2985,4.60016,2470.24,2021-4-05T09:50:56Z
2021-04-05T07:52:52Z,42.805,6.029,13.2982,4.60017,2470.203,2021-4-05T09:53:59Z
2021-04-05T07:55:55Z,42.805,6.029,13.2982,4.60006,2470.227,2021-4-05T09:57:02Z
2021-04-05T07:58:58Z,42.805,6.029,13.2982,4.60016,2470.227,2021-4-05T10:00:06Z
2021-04-05T08:02:01Z,42.805,6.029,13.2982,4.60013,2470.203,2021-4-05T10:03:09Z
2021-04-05T08:05:04Z,42.805,6.029,13.2984,4.60009,2470.264,2021-4-05T10:06:12Z
2021-04-05T08:08:07Z,42.805,6.029,13.2983,4.59995,2470.203,2021-4-05T10:09:15Z
2021-04-05T08:11:10Z,42.805,6.029,13.2983,4.60015,2470.217,2021-4-05T10:12:18Z
2021-04-05T08:14:13Z,42.805,6.029,13.2982,4.60012,2470.203,2021-4-05T10:15:21Z
2021-04-05T08:17:16Z,42.805,6.029,13.2976,4.60001,2470.24,2021-4-05T10:18:24Z
2021-04-05T08:20:20Z,42.805,6.029,13.2980,4.59994,2470.264,2021-4-05T10:21:27Z
2021-04-05T08:23:23Z,42.805,6.029,13.2985,4.60009,2470.24,2021-4-05T10:24:31Z
2021-04-05T08:26:26Z,42.805,6.029,13.2983,4.60015,2470.24,2021-4-05T10:27:34Z
2021-04-05T08:29:29Z,42.805,6.029,13.2984,4.60010,2470.24,2021-4-05T10:30:37Z
2021-04-05T08:32:32Z,42.805,6.029,13.2975,4.60006,2470.203,2021-4-05T10:33:40Z
2021-04-05T08:35:35Z,42.805,6.029,13.2983,4.60006,2470.227,2021-4-05T10:36:43Z
2021-04-05T08:38:38Z,42.805,6.029,13.2983,4.60010,2470.264,2021-4-05T10:39:46Z
2021-04-05T08:41:41Z,42.805,6.029,13.2981,4.60014,2470.264,2021-4-05T10:42:49Z
2021-04-05T08:44:45Z,42.805,6.029,13.2983,4.60020,2470.227,2021-4-05T10:45:52Z
2021-04-05T08:47:48Z,42.805,6.029,13.2982,4.60010,2470.203,2021-4-05T10:48:56Z
2021-04-05T08:50:51Z,42.805,6.029,13.2983,4.60008,2470.24,2021-4-05T10:51:59Z
2021-04-05T08:53:54Z,42.805,6.029,13.2983,4.60016,2470.227,2021-4-05T10:55:02Z
2021-04-05T08:56:57Z,42.805,6.029,13.2982,4.60011,2470.18,2021-4-05T10:58:05Z
2021-04-05T09:00:00Z,42.805,6.029,13.2981,4.60010,2470.203,2021-4-05T11:01:08Z
2021-04-05T09:03:03Z,42.805,6.029,13.2981,4.60011,2470.227,2021-4-05T11:04:11Z
2021-04-05T09:06:06Z,42.805,6.029,13.2981,4.60004,2470.227,2021-4-05T11:07:14Z
2021-04-05T09:09:10Z,42.805,6.029,13.2983,4.60003,2470.203,2021-4-05T11:10:17Z
2021-04-05T09:12:13Z,42.805,6.029,13.2981,4.60012,2470.194,2021-4-05T11:13:20Z
2021-04-05T09:15:16Z,42.805,6.029,13.2980,4.60010,2470.203,2021-4-05T11:16:24Z
2021-04-05T09:18:19Z,42.805,6.029,13.2983,4.60014,2470.203,2021-4-05T11:19:27Z
2021-04-05T09:21:22Z,42.805,6.029,13.2979,4.60000,2470.189,2021-4-05T11:22:30Z
2021-04-05T09:24:25Z,42.805,6.029,13.2980,4.60011,2470.203,2021-4-05T11:25:33Z
2021-04-05T09:27:28Z,42.805,6.029,13.2982,4.59999,2470.203,2021-4-05T11:28:36Z
2021-04-05T09:30:31Z,42.805,6.029,13.2979,4.60002,2470.227,2021-4-05T11:31:39Z
2021-04-05T09:33:35Z,42.805,6.029,13.2978,4.59997,2470.203,2021-4-05T11:34:42Z
2021-04-05T09:36:38Z,42.805,6.029,13.2983,4.60003,2470.227,2021-4-05T11:37:45Z
2021-04-05T09:39:41Z,42.805,6.029,13.2979,4.60003,2470.227,2021-4-05T11:40:49Z
2021-04-05T09:42:44Z,42.805,6.029,13.2982,4.60009,2470.227,2021-4-05T11:43:52Z
2021-04-05T09:45:47Z,42.805,6.029,13.2978,4.60002,2470.227,2021-4-05T11:46:55Z
2021-04-05T09:48:50Z,42.805,6.029,13.2983,4.60006,2470.203,2021-4-05T11:49:58Z
2021-04-05T09:51:53Z,42.805,6.029,13.2983,4.60005,2470.217,2021-4-05T11:53:01Z
2021-04-05T09:54:56Z,42.805,6.029,13.2980,4.60009,2470.24,2021-4-05T11:56:04Z
2021-04-05T09:58:00Z,42.805,6.029,13.2976,4.59996,2470.203,2021-4-05T11:59:07Z
2021-04-05T10:01:03Z,42.805,6.029,13.2980,4.60009,2470.203,2021-4-05T12:02:10Z
2021-04-05T10:04:06Z,42.805,6.029,13.2977,4.60014,2470.203,2021-4-05T12:05:14Z
2021-04-05T10:07:09Z,42.805,6.029,13.2981,4.60010,2470.166,2021-4-05T12:08:17Z
2021-04-05T10:10:12Z,42.805,6.029,13.2983,4.60012,2470.227,2021-4-05T12:11:20Z
2021-04-05T10:13:15Z,42.805,6.029,13.2980,4.60011,2470.24,2021-4-05T12:14:23Z
2021-04-05T10:16:18Z,42.805,6.029,13.2982,4.60011,2470.217,2021-4-05T12:17:26Z
2021-04-05T10:19:21Z,42.805,6.029,13.2982,4.60009,2470.227,2021-4-05T12:20:29Z
2021-04-05T10:22:25Z,42.805,6.029,13.2982,4.60014,2470.203,2021-4-05T12:23:32Z
2021-04-05T10:25:28Z,42.805,6.029,13.2982,4.60011,2470.18,2021-4-05T12:26:35Z
2021-04-05T10:28:31Z,42.805,6.029,13.2982,4.60014,2470.203,2021-4-05T12:29:39Z
2021-04-05T10:31:34Z,42.805,6.029,13.2982,4.60017,2470.227,2021-4-05T12:32:42Z
2021-04-05T10:34:37Z,42.805,6.029,13.2980,4.60011,2470.203,2021-4-05T12:35:45Z
2021-04-05T10:37:40Z,42.805,6.029,13.2979,4.60015,2470.227,2021-4-05T12:38:48Z
2021-04-05T10:40:43Z,42.805,6.029,13.2976,4.60022,2470.203,2021-4-05T12:41:51Z
2021-04-05T10:43:46Z,42.805,6.029,13.2979,4.60047,2470.264,2021-4-05T12:44:54Z
2021-04-05T10:46:49Z,42.805,6.029,13.2981,4.60059,2470.203,2021-4-05T12:47:57Z
2021-04-05T10:49:53Z,42.805,6.029,13.2982,4.60053,2470.24,2021-4-05T12:51:00Z
2021-04-05T10:52:56Z,42.805,6.029,13.2982,4.60058,2470.227,2021-4-05T12:54:04Z
2021-04-05T10:55:59Z,42.805,6.029,13.2982,4.60049,2470.203,2021-4-05T12:57:07Z
2021-04-05T10:59:02Z,42.805,6.029,13.2982,4.60082,2470.227,2021-4-05T13:00:10Z
2021-04-05T11:02:05Z,42.805,6.029,13.2979,4.60093,2470.217,2021-4-05T13:03:13Z
2021-04-05T11:05:08Z,42.805,6.029,13.2980,4.60051,2470.227,2021-4-05T13:06:16Z
2021-04-05T11:08:11Z,42.805,6.029,13.2979,4.60080,2470.203,2021-4-05T13:09:19Z
2021-04-05T11:11:14Z,42.805,6.029,13.2981,4.60059,2470.227,2021-4-05T13:12:22Z
2021-04-05T11:14:18Z,42.805,6.029,13.2981,4.60142,2470.24,2021-4-05T13:15:25Z
2021-04-05T11:17:21Z,42.805,6.029,13.2982,4.60097,2470.227,2021-4-05T13:18:28Z
2021-04-05T11:20:24Z,42.805,6.029,13.2978,4.60091,2470.24,2021-4-05T13:21:32Z
2021-04-05T11:23:27Z,42.805,6.029,13.2984,4.60050,2470.25,2021-4-05T13:24:35Z
2021-04-05T11:26:30Z,42.805,6.029,13.2993,4.60023,2470.203,2021-4-05T13:27:38Z
2021-04-05T11:29:33Z,42.805,6.029,13.2984,4.60052,2470.264,2021-4-05T13:30:41Z
2021-04-05T11:32:36Z,42.805,6.029,13.2981,4.60065,2470.24,2021-4-05T13:33:44Z
2021-04-05T11:35:39Z,42.805,6.029,13.2982,4.60107,2470.24,2021-4-05T13:36:47Z
2021-04-05T11:38:43Z,42.805,6.029,13.2985,4.60067,2470.227,2021-4-05T13:39:50Z
2021-04-05T11:41:46Z,42.805,6.029,13.2986,4.60054,2470.264,2021-4-05T13:42:53Z
2021-04-05T11:44:49Z,42.805,6.029,13.3003,4.60056,2470.227,2021-4-05T13:45:57Z
2021-04-05T11:47:52Z,42.805,6.029,13.3021,4.60072,2470.24,2021-4-05T13:49:00Z
2021-04-05T11:50:55Z,42.805,6.029,13.3029,4.60082,2470.217,2021-4-05T13:52:03Z
2021-04-05T11:53:58Z,42.805,6.029,13.3045,4.60063,2470.24,2021-4-05T13:55:06Z
2021-04-05T11:57:01Z,42.805,6.029,13.3032,4.60060,2470.24,2021-4-05T13:58:09Z
2021-04-05T12:00:04Z,42.805,6.029,13.3048,4.60054,2470.217,2021-4-05T14:01:12Z
2021-04-05T12:03:08Z,42.805,6.029,13.3056,4.60093,2470.203,2021-4-05T14:04:15Z
2021-04-05T12:06:11Z,42.805,6.029,13.3062,4.60062,2470.217,2021-4-05T14:07:18Z
2021-04-05T12:09:14Z,42.805,6.029,13.3065,4.60059,2470.24,2021-4-05T14:10:22Z
2021-04-05T12:12:17Z,42.805,6.029,13.3071,4.60072,2470.203,2021-4-05T14:13:25Z
2021-04-05T12:15:20Z,42.805,6.029,13.3069,4.60069,2470.24,2021-4-05T14:16:28Z
2021-04-05T12:18:23Z,42.805,6.029,13.3063,4.60069,2470.217,2021-4-05T14:19:31Z
2021-04-05T12:21:26Z,42.805,6.029,13.3063,4.60077,2470.203,2021-4-05T14:22:34Z
2021-04-05T12:24:29Z,42.805,6.029,13.3067,4.60061,2470.217,2021-4-05T14:25:37Z
2021-04-05T12:27:33Z,42.805,6.029,13.3069,4.60029,2470.203,2021-4-05T14:28:40Z
2021-04-05T12:30:36Z,42.805,6.029,13.3063,4.60043,2470.203,2021-4-05T14:31:43Z
2021-04-05T12:33:39Z,42.805,6.029,13.3064,4.60034,2470.24,2021-4-05T14:34:47Z
2021-04-05T12:36:42Z,42.805,6.029,13.3056,4.60027,2470.24,2021-4-05T14:37:50Z
2021-04-05T12:39:45Z,42.805,6.029,13.3051,4.60065,2470.217,2021-4-05T14:40:53Z
2021-04-05T12:42:48Z,42.805,6.029,13.3029,4.60031,2470.194,2021-4-05T14:43:56Z
2021-04-05T12:45:51Z,42.805,6.029,13.3034,4.60055,2470.217,2021-4-05T14:46:59Z
2021-04-05T12:48:54Z,42.805,6.029,13.3057,4.60060,2470.203,2021-4-05T14:50:02Z
2021-04-05T12:51:58Z,42.805,6.029,13.3039,4.60043,2470.203,2021-4-05T14:53:05Z
2021-04-05T12:55:01Z,42.805,6.029,13.3011,4.60064,2470.203,2021-4-05T14:56:08Z
2021-04-05T12:58:04Z,42.805,6.029,13.3035,4.60046,2470.194,2021-4-05T14:59:12Z
2021-04-05T13:01:07Z,42.805,6.029,13.3041,4.60045,2470.194,2021-4-05T15:02:15Z
2021-04-05T13:04:10Z,42.805,6.029,13.3056,4.60039,2470.203,2021-4-05T15:05:18Z
2021-04-05T13:07:13Z,42.805,6.029,13.3065,4.60038,2470.194,2021-4-05T15:08:21Z
2021-04-05T13:10:16Z,42.805,6.029,13.3048,4.60081,2470.217,2021-4-05T15:11:24Z
2021-04-05T13:13:19Z,42.805,6.029,13.3048,4.60068,2470.217,2021-4-05T15:14:27Z
2021-04-05T13:16:22Z,42.805,6.029,13.3042,4.60052,2470.217,2021-4-05T15:17:30Z
2021-04-05T13:19:26Z,42.805,6.029,13.2983,4.60077,2470.203,2021-4-05T15:20:33Z
2021-04-05T13:22:29Z,42.805,6.029,13.2979,4.60048,2470.217,2021-4-05T15:23:37Z
2021-04-05T13:25:32Z,42.805,6.029,13.2982,4.60065,2470.203,2021-4-05T15:26:40Z
2021-04-05T13:28:35Z,42.805,6.029,13.2982,4.60069,2470.18,2021-4-05T15:29:43Z
2021-04-05T13:31:38Z,42.805,6.029,13.2983,4.60064,2470.217,2021-4-05T15:32:46Z
2021-04-05T13:34:41Z,42.805,6.029,13.2980,4.60091,2470.203,2021-4-05T15:35:49Z
2021-04-05T13:37:44Z,42.805,6.029,13.2984,4.60095,2470.217,2021-4-05T15:38:52Z
2021-04-05T13:40:47Z,42.805,6.029,13.2984,4.60076,2470.203,2021-4-05T15:41:55Z
2021-04-05T13:43:51Z,42.805,6.029,13.2981,4.60062,2470.18,2021-4-05T15:44:58Z
2021-04-05T13:46:54Z,42.805,6.029,13.2982,4.60057,2470.203,2021-4-05T15:48:02Z
2021-04-05T13:49:57Z,42.805,6.029,13.2979,4.60067,2470.217,2021-4-05T15:51:05Z
2021-04-05T13:53:00Z,42.805,6.029,13.2979,4.60106,2470.18,2021-4-05T15:54:08Z
2021-04-05T13:56:03Z,42.805,6.029,13.2981,4.60079,2470.203,2021-4-05T15:57:11Z
2021-04-05T13:59:06Z,42.805,6.029,13.2978,4.60051,2470.18,2021-4-05T16:00:14Z
2021-04-05T14:02:09Z,42.805,6.029,13.2980,4.60083,2470.194,2021-4-05T16:03:17Z
2021-04-05T14:05:12Z,42.805,6.029,13.2986,4.60095,2470.194,2021-4-05T16:06:20Z
2021-04-05T14:08:16Z,42.805,6.029,13.2983,4.60053,2470.203,2021-4-05T16:09:23Z
2021-04-05T14:11:19Z,42.805,6.029,13.2997,4.60055,2470.203,2021-4-05T16:12:26Z
2021-04-05T14:14:22Z,42.805,6.029,13.3010,4.60039,2470.194,2021-4-05T16:15:30Z
2021-04-05T14:17:25Z,42.805,6.029,13.3014,4.60076,2470.194,2021-4-05T16:18:33Z
2021-04-05T14:20:28Z,42.805,6.029,13.3030,4.60066,2470.203,2021-4-05T16:21:36Z
2021-04-05T14:23:31Z,42.805,6.029,13.3059,4.60044,2470.194,2021-4-05T16:24:39Z
2021-04-05T14:26:34Z,42.805,6.029,13.3054,4.60074,2470.203,2021-4-05T16:27:42Z
2021-04-05T14:29:37Z,42.805,6.029,13.3056,4.60064,2470.194,2021-4-05T16:30:45Z
2021-04-05T14:32:41Z,42.805,6.029,13.3046,4.60084,2470.18,2021-4-05T16:33:48Z
2021-04-05T14:35:44Z,42.805,6.029,13.2997,4.60089,2470.18,2021-4-05T16:36:52Z
2021-04-05T14:38:47Z,42.805,6.029,13.2993,4.60089,2470.171,2021-4-05T16:39:55Z
2021-04-05T14:41:50Z,42.805,6.029,13.3008,4.60063,2470.18,2021-4-05T16:42:58Z
2021-04-05T14:44:53Z,42.805,6.029,13.2982,4.60074,2470.217,2021-4-05T16:46:01Z
2021-04-05T14:47:56Z,42.805,6.029,13.2992,4.60078,2470.18,2021-4-05T16:49:04Z
2021-04-05T14:50:59Z,42.805,6.029,13.3000,4.60058,2470.156,2021-4-05T16:52:07Z
2021-04-05T14:54:02Z,42.805,6.029,13.3026,4.60072,2470.194,2021-4-05T16:55:10Z
2021-04-05T14:57:06Z,42.805,6.029,13.3043,4.60088,2470.147,2021-4-05T16:58:13Z
2021-04-05T15:00:09Z,42.805,6.029,13.3022,4.60067,2470.217,2021-4-05T17:01:16Z
2021-04-05T15:03:12Z,42.805,6.029,13.3039,4.60050,2470.217,2021-4-05T17:04:20Z
2021-04-05T15:06:15Z,42.805,6.029,13.3052,4.60071,2470.194,2021-4-05T17:07:23Z
2021-04-05T15:09:18Z,42.805,6.029,13.3043,4.60087,2470.194,2021-4-05T17:10:26Z
2021-04-05T15:12:21Z,42.805,6.029,13.3053,4.60057,2470.203,2021-4-05T17:13:29Z